Location: Slemon Park
(46.4340°N, 63.8219°W)
Time: 18:44:07
(UTC-03:00)

ISS - All Passes

Search period start: 21 August 2017 00:00
Search period end: 31 August 2017 00:00
Orbit: 401 x 408 km, 51.6° (Epoch: 22 August)

Date Brightness Start Highest point End Pass type
(mag) Time Alt. Az. Time Alt. Az. Time Alt. Az.
21 Aug - 10:35:53 10° SSW 10:38:41 26° SE 10:41:29 10° E daylight
21 Aug - 12:11:44 10° WSW 12:14:59 60° NNW 12:18:15 10° ENE daylight
21 Aug - 13:48:52 10° WNW 13:51:52 31° N 13:54:50 10° ENE daylight
21 Aug - 15:25:35 10° WNW 15:28:47 48° NNE 15:31:58 10° E daylight
21 Aug - 17:02:10 10° WNW 17:05:14 36° SW 17:08:15 10° SSE daylight
22 Aug - 09:44:35 10° S 09:46:37 15° SE 09:48:39 10° E daylight
22 Aug - 11:19:24 10° WSW 11:22:41 89° SSE 11:25:59 10° ENE daylight
22 Aug - 12:56:24 10° WNW 12:59:26 34° N 13:02:28 10° ENE daylight
22 Aug - 14:33:19 10° WNW 14:36:25 37° NNE 14:39:30 10° E daylight
22 Aug - 16:09:47 10° WNW 16:13:03 63° SSW 16:16:16 10° SE daylight
22 Aug - 17:48:34 10° SW 17:48:57 10° SW 17:49:19 10° SW daylight
23 Aug - 10:27:14 10° SW 10:30:27 54° SSE 10:33:39 10° ENE daylight
23 Aug - 12:03:53 10° W 12:07:01 40° NNW 12:10:09 10° ENE daylight
23 Aug - 13:40:58 10° WNW 13:43:59 32° N 13:47:00 10° ENE daylight
23 Aug - 15:17:29 10° WNW 15:20:46 80° NNE 15:24:02 10° ESE daylight
23 Aug - 16:54:36 10° W 16:56:55 18° SW 16:59:12 10° S daylight
24 Aug - 09:35:18 10° SSW 09:38:15 31° SE 09:41:13 10° ENE daylight
24 Aug - 11:11:24 10° W 11:14:38 53° NNW 11:17:52 10° ENE daylight
24 Aug - 12:48:33 10° WNW 12:51:32 31° N 12:54:31 10° ENE daylight
24 Aug - 14:25:12 10° WNW 14:28:26 54° NNE 14:31:39 10° E daylight
24 Aug - 16:01:52 10° WNW 16:04:48 30° SW 16:07:42 10° SSE daylight
25 Aug - 08:43:44 10° S 08:46:07 19° SE 08:48:31 10° E daylight
25 Aug - 10:18:59 10° WSW 10:22:16 78° NNW 10:25:34 10° ENE daylight
25 Aug - 11:56:03 10° WNW 11:59:04 32° N 12:02:05 10° ENE daylight
25 Aug - 13:32:53 10° WNW 13:36:02 40° NNE 13:39:09 10° E daylight
25 Aug - 15:09:24 10° WNW 15:12:36 52° SSW 15:15:47 10° SE daylight
26 Aug - 07:53:15 10° SSE 07:54:03 11° SE 07:54:51 10° ESE daylight
26 Aug - 09:26:42 10° SW 09:29:58 65° SSE 09:33:14 10° ENE daylight
26 Aug - 11:03:30 10° W 11:06:36 37° NNW 11:09:42 10° ENE daylight
26 Aug - 12:40:32 10° WNW 12:43:35 34° N 12:46:37 10° ENE daylight
26 Aug - 14:17:01 10° WNW 14:20:19 87° SSW 14:23:35 10° ESE daylight
26 Aug - 15:54:26 10° W 15:56:22 15° SW 15:58:18 10° S daylight
27 Aug - 08:34:38 10° SSW 08:37:43 38° SE 08:40:48 10° ENE daylight
27 Aug - 10:10:57 10° W 10:14:10 47° NNW 10:17:22 10° ENE daylight
27 Aug - 11:48:06 10° WNW 11:51:06 31° N 11:54:05 10° ENE daylight
27 Aug - 13:24:41 10° WNW 13:27:58 61° NNE 13:31:12 10° ESE daylight
27 Aug - 15:01:29 10° W 15:04:14 25° SW 15:06:59 10° SSE daylight
28 Aug - 07:42:53 10° SSW 07:45:31 22° SE 07:48:10 10° E daylight
28 Aug - 09:18:28 10° WSW 09:21:45 68° NNW 09:25:02 10° ENE daylight
28 Aug - 10:55:35 10° WNW 10:58:35 32° N 11:01:35 10° ENE daylight
28 Aug - 12:32:22 10° WNW 12:35:32 44° NNE 12:38:41 10° E daylight
28 Aug - 14:08:53 10° WNW 14:12:01 43° SW 14:15:09 10° SE daylight
29 Aug - 06:51:46 10° SSE 06:53:23 13° SE 06:55:01 10° ESE daylight
29 Aug - 08:26:06 10° WSW 08:29:23 78° SSE 08:32:41 10° ENE daylight
29 Aug - 10:03:00 10° WNW 10:06:04 35° N 10:09:09 10° ENE daylight
29 Aug - 11:39:58 10° WNW 11:43:03 36° N 11:46:07 10° E daylight
29 Aug - 13:16:28 10° WNW 13:19:44 74° SSW 13:22:59 10° SE daylight
29 Aug - 14:54:17 10° WSW 14:55:42 12° SW 14:57:06 10° SSW daylight
30 Aug - 07:33:54 10° SW 07:37:04 46° SE 07:40:15 10° ENE daylight
30 Aug - 09:10:25 10° W 09:13:35 43° NNW 09:16:45 10° ENE daylight
30 Aug - 10:47:31 10° WNW 10:50:32 32° N 10:53:32 10° ENE daylight
30 Aug - 12:24:04 10° WNW 12:27:22 71° NNE 12:30:38 10° ESE daylight
30 Aug - 14:01:00 10° W 14:03:34 21° SW 14:06:06 10° S daylight
